[[{"header":{"parameterUnit":"m.s-1","parameterCategory":1,"la1":30.2991,"la2":30.254,"lo1":-89.0895,"lo2":-89.0444,"dy":0.0017,"dx":0.0017,"nx":28,"ny":28,"refTime":"2024-07-10T09:00:00:Z","depth":0,"parameterNumber":2,"parameterNumberName":"U-component_of_WINDS"},"data":[0,0,0,0,0,0,0,0,0,0,0,0,0,0,0,0,0,0,0,0,0,0,0,0,0,0,0,0,0,0,0,0,0,0,0,0,0,0,0,0,0,0,0,0,0,0,0,0,0,0,0,0,0,0,0,0,0,0,0.5649,0.5649,0,0.566,0.566,0.566,0.5594,0.5592,0.559,0.5588,0.5603,0.5605,0.5608,0,0,0,0,0,0,0,0,0,0,0,0,0,0.5572,0.5574,0.5649,0.5649,0.5649,0.566,0.566,0.566,0.5594,0.5592,0.5589,0.5587,0.5603,0.5605,0.5608,0,0,0,0,0,0,0,0,0,0,0,0,0,0.5597,0.5574,0.5649,0.5617,0.5614,0.566,0.566,0.566,0.5594,0.5592,0.5589,0.5586,0.5602,0.5605,0.5608,0.5686,0,0,0.5618,0.562,0,0,0,0,0,0,0,0,0.5595,0.56,0.5622,0.5619,0.5616,0.5622,0.5639,0.5669,0.5595,0.5602,0.5588,0.5585,0.5612,0.5614,0.5623,0.5686,0.5687,0.5618,0.562,0.5622,0.5623,0,0,0,0,0,0,0,0.5594,0.5599,0.5653,0.5622,0.5619,0.5603,0.5603,0.5644,0.5623,0.5601,0.5596,0.5599,0.561,0.562,0.5623,0.5687,0.5618,0.5621,0.5623,0.5625,0.5814,0.5817,0,0,0,0,0,0,0.5596,0.5598,0.5653,0.5654,0.5598,0.5607,0.5607,0.5623,0.5623,0.562,0.5601,0.5595,0.5616,0.5619,0.5623,0.5713,0.5622,0.5625,0.5627,0.5811,0.5815,0.5818,0,0,0,0,0,0,0.5594,0.5601,0.5652,0.5624,0.563,0.5611,0.563,0.5625,0.5635,0.5622,0.5618,0.5615,0.5614,0.5618,0.567,0.5713,0.5626,0.5629,0.5807,0.5812,0.5816,0.5895,0,0,0,0,0,0,0.5593,0.5601,0.563,0.5625,0.5631,0.5699,0.5633,0.5627,0.564,0.5633,0.5634,0.5632,0.5612,0.5666,0.5673,0.5716,0.5632,0.5804,0.581,0.5815,0.5888,0.5901,0.5913,0,0,0,0,0,0.559,0.5653,0.5632,0.5639,0.5667,0.5701,0.5705,0.568,0.5644,0.5673,0.5665,0.5631,0.5707,0.5671,0.568,0.5724,0.5801,0.5808,0.5814,0.5883,0.5899,0.5912,0,0,0,0,0,0,0.5665,0.5652,0.5628,0.5691,0.5698,0.569,0.5726,0.5698,0.5716,0.5708,0.5678,0.5678,0.5735,0.5735,0.5695,0.5798,0.5748,0.5757,0.5797,0.5812,0.5824,0.5823,0.5635,0,0,0,0,0,0.5688,0.5716,0.5704,0.5761,0.5765,0.5745,0.5759,0.5739,0.5745,0.5748,0.5744,0.5752,0.5777,0.5794,0.5817,0.5888,0.5887,0.5922,0.5934,0.5944,0.5952,0.5989,0.6004,0.5841,0.5841,0.584,0,0,0.5738,0.5734,0.5754,0.5775,0.5778,0.5809,0.5748,0.5783,0.5806,0.5754,0.5802,0.5799,0.5806,0.5867,0.5894,0.5868,0.5997,0.5953,0.5961,0.5964,0.5998,0.6013,0.6027,0.5845,0.5845,0.5844,0,0,0.5843,0.5843,0.589,0.5893,0.5897,0.5884,0.5895,0.5891,0.5887,0.5934,0.5895,0.5922,0.5967,0.5973,0.5982,0.6088,0.6058,0.6096,0.616,0.6196,0.6209,0.622,0.6258,0.6272,0.6104,0.6105,0.6105,0,0.5904,0.5948,0.5918,0.5955,0.5966,0.5918,0.5966,0.5971,0.5983,0.5992,0.5962,0.6016,0.6018,0.6079,0.6105,0.6114,0.6126,0.6096,0.6209,0.622,0.6231,0.6266,0.628,0.6109,0.6109,0.6108,0.6108,0,0.6022,0.6053,0.609,0.6101,0.6116,0.6159,0.6136,0.6154,0.6133,0.6122,0.6171,0.6171,0.6192,0.6205,0.6185,0.6264,0.6247,0.6215,0.6163,0.6251,0.6284,0.6297,0.6116,0.6114,0.6113,0.6112,0,0,0.6176,0.6169,0.6183,0.6187,0.6187,0.6211,0.6251,0.627,0.6287,0.6297,0.6329,0.6367,0.6336,0.6346,0.6327,0.6358,0.6442,0.6321,0.6321,0.6343,0.6528,0.6552,0.6569,0.6421,0.6424,0.6426,0.6527,0,0.6279,0.6345,0.6319,0.6388,0.6416,0.6371,0.6406,0.641,0.6402,0.6424,0.6415,0.6442,0.6399,0.6405,0.6434,0.6425,0.6478,0.6418,0.6452,0.6454,0.6452,0.6586,0.6612,0.6708,0.654,0.6542,0.6543,0,0.6407,0.642,0.6492,0.6486,0.6497,0.6529,0.6544,0.6566,0.657,0.6561,0.6572,0.6545,0.6584,0.6533,0.6586,0.6546,0.6558,0.6556,0.6559,0.6561,0.6504,0.6591,0.6737,0.6752,0.6563,0.6562,0.656,0,0.6512,0.6547,0.6594,0.6599,0.6594,0.6617,0.6617,0.6618,0.6631,0.6644,0.6652,0.6671,0.6681,0.6696,0.6675,0.6639,0.6731,0.6678,0.6725,0.6726,0.6747,0.6746,0.6897,0.6756,0.6755,0.6755,0.6755,0,0.6629,0.6675,0.6641,0.667,0.672,0.6689,0.674,0.6734,0.6735,0.6762,0.6725,0.6752,0.6722,0.6746,0.673,0.6776,0.6781,0.6776,0.6771,0.6779,0.678,0.6787,0.6779,0.6759,0.6758,0.6757,0.6757,0,0.6754,0.6734,0.6782,0.6772,0.6771,0.6808,0.68,0.6827,0.6814,0.685,0.6856,0.6838,0.6864,0.6844,0.687,0.6859,0.692,0.6906,0.6919,0.6915,0.6963,0.6959,0.7124,0.7143,0.699,0.6991,0.6993,0,0.683,0.6864,0.6858,0.6872,0.6873,0.6899,0.6911,0.6882,0.6897,0.6903,0.6929,0.6952,0.6968,0.7013,0.7002,0.7022,0.7008,0.7064,0.7011,0.7017,0.7008,0.7006,0.7009,0.7075,0.7077,0.7078,0.708,0,0.6967,0.6955,0.6974,0.6989,0.7004,0.7015,0.7023,0.7038,0.7009,0.7027,0.7053,0.7065,0.7091,0.7114,0.713,0.713,0.71,0.7096,0.7108,0.7117,0.7122,0.7119,0.6948,0.7093,0.7091,0.7091,0.709,0.7089,0.707,0.7097,0.7097,0.7119,0.7121,0.7129,0.7153,0.7143,0.7164,0.7182,0.7164,0.7194,0.7197,0.7214,0.7218,0.7242,0.7218,0.7236,0.724,0.7245,0.7251,0.7118,0.7245,0.7244,0.7244,0.7243,0.7243,0,0.7205,0.7202,0.7222,0.7233,0.7251,0.722,0.7227,0.7243,0.727,0.7274,0.7291,0.732,0.7342,0.7332,0.7351,0.7372,0.7359,0.7378,0.7376,0.7377,0.7271,0.7259,0.7388,0.7388,0.7388,0.7388,0.7388,0.7388,0.7277,0.7321,0.7309,0.7354,0.735,0.7379,0.7386,0.7393,0.7396,0.7429,0.7447,0.744,0.7438,0.7457,0.7475,0.7472,0.7481,0.7505,0.7496,0.7399,0.7384,0.7371,0.7359,0.7507,0.7507,0.7599,0.76,0.7601]},{"header":{"parameterUnit":"m.s-1","parameterCategory":1,"la1":30.2991,"la2":30.254,"lo1":-89.0895,"lo2":-89.0444,"dy":0.0017,"dx":0.0017,"nx":28,"ny":28,"refTime":"2024-07-10T09:00:00:Z","depth":0,"parameterNumber":3,"parameterNumberName":"V-component_of_WINDS"},"data":[0,0,0,0,0,0,0,0,0,0,0,0,0,0,0,0,0,0,0,0,0,0,0,0,0,0,0,0,0,0,0,0,0,0,0,0,0,0,0,0,0,0,0,0,0,0,0,0,0,0,0,0,0,0,0,0,0,0,2.1788,2.1787,0,2.1732,2.1732,2.1731,2.1696,2.1696,2.1696,2.1696,2.1636,2.1634,2.1633,0,0,0,0,0,0,0,0,0,0,0,0,0,2.1861,2.186,2.1788,2.1787,2.1786,2.1732,2.1732,2.1731,2.1696,2.1696,2.1696,2.1696,2.1636,2.1635,2.1633,0,0,0,0,0,0,0,0,0,0,0,0,0,2.182,2.1859,2.1788,2.1763,2.176,2.1733,2.1732,2.1731,2.1696,2.1696,2.1696,2.1696,2.1637,2.1635,2.1633,2.1625,0,0,2.1626,2.1625,0,0,0,0,0,0,0,0,2.1822,2.1817,2.1767,2.1764,2.1761,2.1721,2.1735,2.1695,2.1696,2.172,2.1696,2.1695,2.1664,2.166,2.165,2.1622,2.162,2.1626,2.1625,2.1624,2.1623,0,0,0,0,0,0,0,2.1825,2.1819,2.1766,2.1766,2.1763,2.1753,2.1747,2.1728,2.1694,2.1718,2.1716,2.171,2.1663,2.1652,2.1648,2.1619,2.1626,2.1624,2.1623,2.1622,2.1582,2.1582,0,0,0,0,0,0,2.1832,2.1822,2.1768,2.1764,2.1792,2.1752,2.1745,2.1734,2.1695,2.1688,2.171,2.1708,2.1656,2.1651,2.1646,2.1634,2.1624,2.1622,2.1621,2.1582,2.1582,2.1582,0,0,0,0,0,0,2.1834,2.1828,2.177,2.1792,2.1784,2.1751,2.1739,2.1733,2.1723,2.1688,2.1682,2.1706,2.1655,2.1649,2.1631,2.1631,2.1621,2.1619,2.1581,2.1582,2.1582,2.161,0,0,0,0,0,0,2.1836,2.1828,2.1826,2.1792,2.1783,2.1756,2.1739,2.1732,2.172,2.1717,2.1683,2.1677,2.1655,2.1634,2.1629,2.1628,2.1617,2.1581,2.1582,2.1582,2.1609,2.1612,2.1614,0,0,0,0,0,2.1839,2.1836,2.1826,2.182,2.1779,2.1756,2.1751,2.1727,2.172,2.1716,2.1694,2.1678,2.1633,2.1633,2.1626,2.1625,2.1581,2.1581,2.1582,2.1608,2.1611,2.1614,0,0,0,0,0,0,2.1869,2.1831,2.182,2.1806,2.1785,2.1751,2.1746,2.1731,2.171,2.1709,2.1679,2.1671,2.1656,2.1639,2.1639,2.1616,2.1605,2.1604,2.1627,2.163,2.1632,2.1636,2.1616,0,0,0,0,0,2.1874,2.186,2.1827,2.1818,2.1808,2.1779,2.1768,2.1751,2.1728,2.1718,2.1695,2.1672,2.1653,2.164,2.1621,2.1607,2.1599,2.1603,2.1606,2.1608,2.1607,2.1598,2.1599,2.1584,2.1584,2.1584,0,0,2.1884,2.1862,2.1854,2.1823,2.1805,2.1789,2.1771,2.1756,2.1744,2.1716,2.1697,2.1679,2.1652,2.1636,2.1627,2.1621,2.1609,2.1608,2.161,2.1608,2.1598,2.16,2.1601,2.1584,2.1584,2.1584,0,0,2.1895,2.1877,2.1867,2.1849,2.1822,2.1803,2.1801,2.1769,2.1756,2.1738,2.1716,2.1701,2.1668,2.1649,2.1636,2.164,2.1623,2.1634,2.1645,2.1637,2.1638,2.1639,2.1639,2.164,2.1634,2.1634,2.1634,0,2.191,2.1887,2.1863,2.1849,2.1836,2.1811,2.18,2.1784,2.1751,2.1742,2.1736,2.1695,2.1674,2.1653,2.1654,2.1644,2.164,2.1637,2.164,2.1641,2.1641,2.1641,2.1641,2.1635,2.1635,2.1635,2.1635,0,2.1907,2.1892,2.1887,2.1858,2.1844,2.1831,2.1805,2.1793,2.1778,2.1759,2.174,2.1715,2.169,2.1684,2.1668,2.166,2.1657,2.1646,2.1634,2.1644,2.1644,2.1644,2.1637,2.1637,2.1636,2.1636,0,0,2.1934,2.1892,2.1891,2.1877,2.1846,2.1833,2.1819,2.1795,2.1786,2.1764,2.1751,2.1725,2.1714,2.1699,2.1681,2.1674,2.1677,2.1663,2.1662,2.1666,2.1666,2.1674,2.1674,2.1667,2.1667,2.1667,2.1668,0,2.1939,2.1914,2.1892,2.1875,2.186,2.1836,2.1824,2.1803,2.1786,2.1769,2.1749,2.1731,2.1719,2.1709,2.1701,2.1679,2.1677,2.1679,2.1653,2.1653,2.166,2.1674,2.1682,2.1685,2.1668,2.1668,2.1668,0,2.1941,2.1922,2.1904,2.1874,2.1867,2.1856,2.1833,2.1818,2.1794,2.1781,2.1764,2.1746,2.1729,2.172,2.1697,2.1698,2.1687,2.1674,2.1674,2.1669,2.166,2.1669,2.1685,2.1685,2.1667,2.1667,2.1667,0,2.1962,2.1931,2.1916,2.1905,2.187,2.1863,2.1848,2.1824,2.1811,2.179,2.1781,2.1758,2.1745,2.1728,2.1703,2.1699,2.1682,2.1671,2.167,2.1671,2.1666,2.1667,2.1679,2.1661,2.1661,2.1661,2.1661,0,2.1969,2.1958,2.1924,2.1915,2.1902,2.1877,2.1865,2.1847,2.1826,2.1812,2.179,2.1777,2.1746,2.173,2.1711,2.1693,2.1688,2.1676,2.1671,2.1678,2.1679,2.1669,2.1668,2.1661,2.1661,2.1661,2.1661,0,2.1988,2.1966,2.1947,2.1917,2.1908,2.19,2.1873,2.1863,2.1844,2.1827,2.1821,2.1792,2.1771,2.1745,2.1716,2.1703,2.1687,2.168,2.1696,2.1692,2.1692,2.1692,2.1698,2.1697,2.1681,2.1681,2.1681,0,2.1994,2.1985,2.1954,2.1943,2.1929,2.1913,2.19,2.1875,2.1862,2.1834,2.1826,2.1804,2.1785,2.1753,2.1728,2.1705,2.1697,2.17,2.1693,2.17,2.1695,2.1696,2.1694,2.1702,2.1702,2.1702,2.1702,0,2.2006,2.1995,2.1978,2.1957,2.1942,2.1924,2.1905,2.1897,2.1868,2.1855,2.1834,2.1819,2.1789,2.1767,2.1742,2.1725,2.1708,2.1705,2.1703,2.1709,2.1719,2.1713,2.17,2.1705,2.1705,2.1704,2.1704,2.1704,2.2018,2.2009,2.1985,2.1967,2.195,2.1933,2.1921,2.1902,2.1884,2.1859,2.1845,2.1824,2.18,2.1764,2.1748,2.173,2.1724,2.1722,2.1721,2.1721,2.1723,2.1723,2.1726,2.1726,2.1726,2.1725,2.1725,0,2.2028,2.2012,2.1995,2.1969,2.1954,2.1942,2.192,2.1908,2.1891,2.187,2.1851,2.1827,2.1806,2.178,2.1756,2.1747,2.1739,2.1742,2.1741,2.1738,2.173,2.1733,2.1749,2.1749,2.1749,2.1749,2.1749,2.1749,2.2031,2.2015,2.2002,2.1977,2.1961,2.1941,2.193,2.1913,2.1896,2.1871,2.1853,2.1837,2.1814,2.1788,2.1768,2.176,2.1752,2.1757,2.1748,2.174,2.1738,2.1736,2.1739,2.1756,2.1756,2.1757,2.1757,2.1757]}]]